K2YYD-2 Weather Reports


time (UTC)temp
C
wind
direction
speed
KPH
gust
KPH
rain 1hr
cm
rain 24hr
cm
rain mn
cm
humidity
%
barometer
mb
20260506143254 16 161 4.8 12.9 0.00 0.00 0.00 83 1006.5
20260506143054 16 174 4.8 12.9 0.00 0.00 0.00 83 1006.5
20260506142855 16 167 6.4 12.9 0.00 0.00 0.00 83 1006.5
20260506142655 16 150 6.4 12.9 0.00 0.00 0.00 84 1006.6
20260506142455 16 91 6.4 14.5 0.00 0.00 0.00 83 1006.7
20260506142254 16 187 6.4 14.5 0.00 0.00 0.00 83 1006.7
20260506142141 16 140 6.4 14.5 0.00 0.00 0.00 83 1006.7
20260506141855 16 133 6.4 14.5 0.00 0.00 0.00 83 1006.8
20260506141655 16 184 8.0 14.5 0.00 0.00 0.00 83 1006.8
20260506141454 16 180 6.4 14.5 0.00 0.00 0.00 83 1006.8
20260506141355 16 167 6.4 14.5 0.00 0.00 0.00 84 1006.9
20260506141303 16 167 6.4 14.5 0.00 0.00 0.00 84 1006.9
20260506141055 16 200 6.4 14.5 0.00 0.00 0.00 83 1006.9
20260506140855 16 177 6.4 14.5 0.00 0.00 0.00 82 1006.8
20260506140655 16 177 6.4 14.5 0.00 0.00 0.00 83 1006.9
20260506140455 16 46 6.4 14.5 0.00 0.00 0.00 83 1006.9
20260506140255 16 178 6.4 14.5 0.00 0.00 0.00 82 1006.9
20260506140056 16 176 6.4 16.1 0.00 0.00 0.00 82 1006.9
20260506135855 16 179 6.4 16.1 0.00 0.00 0.00 82 1006.9
20260506135655 16 190 6.4 16.1 0.00 0.00 0.00 83 1006.9
20260506135455 16 177 6.4 16.1 0.00 0.00 0.00 83 1007.0
20260506135255 16 162 6.4 16.1 0.00 0.00 0.00 82 1007.0
20260506135056 16 183 4.8 16.1 0.00 0.00 0.00 82 1007.1
20260506134855 16 150 4.8 11.3 0.00 0.00 0.00 81 1007.1
20260506134655 16 181 4.8 12.9 0.00 0.00 0.00 82 1007.2
20260506134455 16 210 4.8 12.9 0.00 0.00 0.00 82 1007.2
20260506134252 16 210 6.4 12.9 0.00 0.00 0.00 82 1007.2
20260506133853 16 122 4.8 12.9 0.00 0.00 0.00 83 1007.1
20260506133653 16 174 6.4 12.9 0.00 0.00 0.00 83 1007.2
20260506133452 16 185 4.8 12.9 0.00 0.00 0.00 83 1007.1
20260506133252 16 176 6.4 12.9 0.00 0.00 0.00 82 1007.2
20260506133053 16 189 4.8 12.9 0.00 0.00 0.00 83 1007.1
20260506132849 16 166 6.4 12.9 0.00 0.00 0.00 83 1007.1
20260506132649 16 168 6.4 12.9 0.00 0.00 0.00 82 1007.1
20260506132450 16 200 6.4 12.9 0.00 0.00 0.00 83 1007.1
20260506132250 16 146 4.8 11.3 0.00 0.00 0.00 82 1007.0
20260506132049 16 194 4.8 12.9 0.00 0.00 0.00 82 1007.0
20260506131850 16 168 6.4 14.5 0.00 0.00 0.00 82 1007.0
20260506131651 16 160 6.4 14.5 0.00 0.00 0.00 83 1006.9
20260506131449 15 148 6.4 14.5 0.00 0.00 0.00 84 1006.9
20260506131250 15 172 8.0 14.5 0.00 0.00 0.00 84 1006.9
20260506131050 15 162 8.0 14.5 0.00 0.00 0.00 84 1006.8
20260506130850 15 171 8.0 14.5 0.00 0.00 0.00 84 1006.8
20260506130650 15 162 6.4 14.5 0.00 0.00 0.00 85 1006.8
20260506130450 15 164 6.4 14.5 0.00 0.00 0.00 84 1006.8
20260506130250 15 183 6.4 14.5 0.00 0.00 0.00 85 1006.8
20260506130051 15 187 6.4 14.5 0.00 0.00 0.00 85 1006.8
20260506125850 15 175 6.4 14.5 0.00 0.00 0.00 85 1006.8
20260506125650 15 171 6.4 14.5 0.00 0.00 0.00 85 1006.8
20260506125450 15 178 6.4 14.5 0.00 0.00 0.00 86 1006.8
20260506125251 15 245 8.0 14.5 0.00 0.00 0.00 85 1006.8
20260506125050 15 174 8.0 14.5 0.00 0.00 0.00 85 1006.8
20260506124850 15 174 8.0 14.5 0.00 0.00 0.00 85 1006.9
20260506124650 15 181 8.0 14.5 0.00 0.00 0.00 86 1006.9
20260506124450 15 182 6.4 14.5 0.00 0.00 0.00 85 1006.9
20260506124251 15 158 6.4 12.9 0.00 0.00 0.00 84 1006.9
20260506124050 15 179 6.4 16.1 0.00 0.00 0.00 84 1006.9
20260506123850 15 167 6.4 16.1 0.00 0.00 0.00 84 1006.9
20260506123651 15 172 6.4 16.1 0.00 0.00 0.00 85 1006.8
20260506123450 15 263 6.4 16.1 0.00 0.00 0.00 85 1006.9
20260506123251 15 187 6.4 16.1 0.00 0.00 0.00 85 1007.0
20260506123137 15 181 6.4 16.1 0.00 0.00 0.00 85 1007.1
20260506122850 15 190 6.4 11.3 0.00 0.00 0.00 85 1007.1
20260506122650 15 180 6.4 11.3 0.00 0.00 0.00 85 1007.1
20260506122451 15 201 6.4 11.3 0.00 0.00 0.00 85 1007.1
20260506122250 15 174 6.4 11.3 0.00 0.00 0.00 85 1007.2
20260506122137 15 185 6.4 11.3 0.00 0.00 0.00 86 1007.2
20260506121848 15 142 6.4 11.3 0.00 0.00 0.00 86 1007.2
20260506121647 15 188 6.4 11.3 0.00 0.00 0.00 86 1007.2
20260506121445 15 168 6.4 12.9 0.00 0.00 0.00 86 1007.2
20260506121245 15 172 6.4 19.3 0.00 0.00 0.00 87 1007.2
20260506121044 15 153 8.0 19.3 0.00 0.00 0.00 87 1007.2
20260506120845 15 152 8.0 19.3 0.00 0.00 0.00 87 1007.2
20260506120645 15 266 8.0 19.3 0.00 0.00 0.00 88 1007.3
20260506120445 15 188 9.7 19.3 0.00 0.00 0.00 87 1007.3
20260506120245 15 195 8.0 16.1 0.00 0.00 0.00 87 1007.2
20260506120045 15 207 9.7 16.1 0.00 0.00 0.00 87 1007.2
20260506115846 15 182 8.0 16.1 0.00 0.00 0.00 87 1007.2
20260506115645 15 175 8.0 16.1 0.00 0.00 0.00 87 1007.2
20260506115445 15 74 8.0 16.1 0.00 0.00 0.00 87 1007.2
20260506115245 15 156 8.0 16.1 0.00 0.00 0.00 87 1007.1
20260506115045 15 183 8.0 17.7 0.00 0.00 0.00 88 1007.2
20260506114845 15 171 8.0 17.7 0.00 0.00 0.00 88 1007.2
20260506114646 14 189 8.0 17.7 0.00 0.00 0.00 88 1007.2
20260506114445 14 160 8.0 17.7 0.00 0.00 0.00 89 1007.2
20260506114244 14 190 8.0 17.7 0.00 0.00 0.00 89 1007.2
20260506114045 14 177 8.0 17.7 0.00 0.00 0.00 89 1007.2
20260506113845 14 176 8.0 14.5 0.00 0.00 0.00 89 1007.2
20260506113645 14 325 8.0 14.5 0.00 0.00 0.00 90 1007.1
20260506113446 14 156 6.4 14.5 0.00 0.00 0.00 90 1007.1
20260506113245 14 172 6.4 14.5 0.00 0.00 0.00 90 1007.1
20260506113046 14 155 6.4 14.5 0.00 0.00 0.00 90 1007.1
20260506112845 14 188 6.4 14.5 0.00 0.00 0.00 91 1007.0
20260506112645 13 123 6.4 14.5 0.00 0.00 0.00 91 1007.0
20260506112445 13 152 8.0 14.5 0.00 0.00 0.00 91 1007.0
20260506112246 13 177 6.4 16.1 0.00 0.00 0.00 91 1006.9
20260506112045 13 198 8.0 16.1 0.00 0.00 0.00 92 1006.9
20260506111845 13 182 8.0 16.1 0.00 0.00 0.00 92 1007.0
20260506111645 13 186 8.0 16.1 0.00 0.00 0.00 92 1007.0
20260506111446 13 175 9.7 17.7 0.00 0.00 0.00 92 1007.0
20260506111245 13 183 9.7 17.7 0.00 0.00 0.00 92 1007.1
20260506111132 13 162 9.7 17.7 0.00 0.00 0.00 93 1007.1
20260506110842 13 191 9.7 17.7 0.00 0.00 0.00 93 1007.2
20260506110642 13 175 8.0 17.7 0.00 0.00 0.00 93 1007.1
20260506110441 13 201 8.0 16.1 0.00 0.00 0.00 93 1007.2
20260506110240 13 178 8.0 16.1 0.00 0.00 0.00 93 1007.2
20260506110040 13 180 6.4 16.1 0.00 0.00 0.00 93 1007.2
20260506105839 13 169 6.4 16.1 0.00 0.00 0.00 94 1007.2
20260506105640 13 217 6.4 16.1 0.00 0.00 0.00 94 1007.1
20260506105441 13 174 6.4 16.1 0.00 0.00 0.00 94 1007.1
20260506105240 13 153 6.4 16.1 0.00 0.00 0.00 94 1007.1
20260506105040 13 188 8.0 17.7 0.00 0.00 0.00 94 1007.1
20260506104840 13 151 6.4 17.7 0.00 0.00 0.00 94 1007.1
20260506104640 13 174 8.0 17.7 0.00 0.00 0.00 94 1007.0
20260506104441 13 175 8.0 17.7 0.00 0.00 0.00 94 1007.0
20260506104240 13 151 6.4 17.7 0.00 0.00 0.00 94 1007.0
20260506104037 13 143 6.4 14.5 0.00 0.00 0.00 94 1006.9
20260506103837 13 172 6.4 14.5 0.00 0.00 0.00 94 1007.0
20260506103637 13 184 6.4 14.5 0.00 0.00 0.00 94 1007.0
20260506103437 13 169 6.4 16.1 0.00 0.00 0.00 94 1007.0
20260506103237 13 166 6.4 16.1 0.00 0.00 0.00 94 1007.0
20260506103129 13 175 6.4 16.1 0.00 0.00 0.00 94 1007.0
20260506102837 13 187 6.4 16.1 0.00 0.00 0.00 94 1006.9
20260506102637 13 186 6.4 16.1 0.00 0.00 0.00 94 1007.0
20260506102437 13 186 6.4 14.5 0.00 0.00 0.00 94 1007.0
20260506102238 13 175 6.4 14.5 0.00 0.00 0.00 94 1007.0
20260506102037 13 156 6.4 14.5 0.00 0.00 0.00 94 1007.0
20260506101838 13 167 4.8 14.5 0.00 0.00 0.00 94 1007.0
20260506101637 13 178 6.4 14.5 0.00 0.00 0.00 94 1006.9
20260506101437 13 161 6.4 14.5 0.00 0.00 0.00 94 1006.9
20260506101237 13 131 6.4 11.3 0.00 0.00 0.00 94 1006.9
20260506101038 13 167 6.4 11.3 0.00 0.00 0.00 94 1006.9
20260506100838 13 200 6.4 14.5 0.00 0.00 0.00 94 1006.9
20260506100637 13 167 6.4 16.1 0.00 0.00 0.00 94 1006.9
20260506100438 13 142 6.4 16.1 0.00 0.00 0.00 94 1007.0
20260506100238 13 186 6.4 16.1 0.00 0.00 0.00 94 1006.9
20260506100038 13 179 6.4 16.1 0.00 0.00 0.00 94 1007.0
20260506095838 13 170 6.4 16.1 0.00 0.00 0.00 94 1006.9
20260506095638 13 184 6.4 14.5 0.00 0.00 0.00 94 1006.9
20260506095438 13 174 6.4 14.5 0.00 0.00 0.00 94 1006.9
20260506095238 13 165 6.4 14.5 0.00 0.00 0.00 94 1006.9
20260506095038 13 177 6.4 16.1 0.00 0.00 0.00 94 1006.9
20260506094835 13 183 6.4 16.1 0.00 0.00 0.00 94 1006.9
20260506094635 13 161 6.4 16.1 0.00 0.00 0.00 93 1006.9
20260506094435 13 174 8.0 16.1 0.00 0.00 0.00 93 1006.9
20260506094234 13 167 8.0 16.1 0.00 0.00 0.00 93 1006.8
20260506094034 13 189 8.0 16.1 0.00 0.00 0.00 93 1006.9
20260506093835 13 147 8.0 16.1 0.00 0.00 0.00 93 1006.8
20260506093635 13 178 6.4 16.1 0.00 0.00 0.00 93 1006.8
20260506093435 13 162 6.4 14.5 0.00 0.00 0.00 93 1006.8
20260506093235 13 169 6.4 12.9 0.00 0.00 0.00 93 1006.9
20260506093035 13 174 6.4 12.9 0.00 0.00 0.00 93 1006.9
20260506092835 13 156 4.8 12.9 0.00 0.00 0.00 93 1006.9
20260506092634 13 179 4.8 12.9 0.00 0.00 0.00 93 1006.9
20260506092436 13 139 4.8 12.9 0.00 0.00 0.00 93 1006.9
20260506092235 13 174 4.8 12.9 0.00 0.00 0.00 93 1006.8
20260506092035 13 166 4.8 12.9 0.00 0.00 0.00 93 1006.8
20260506091835 13 209 4.8 14.5 0.00 0.00 0.00 93 1006.9
20260506091634 13 202 6.4 17.7 0.00 0.00 0.00 93 1006.8
20260506091435 13 161 6.4 17.7 0.00 0.00 0.00 93 1006.8
20260506091235 13 167 6.4 17.7 0.00 0.00 0.00 93 1006.9
20260506091035 13 180 6.4 17.7 0.00 0.00 0.00 93 1006.9
20260506090836 13 176 6.4 17.7 0.00 0.00 0.00 93 1007.0
20260506090636 13 189 4.8 12.9 0.00 0.00 0.00 92 1007.0
20260506090435 13 170 4.8 12.9 0.00 0.00 0.00 92 1007.0
20260506090235 13 175 6.4 12.9 0.00 0.00 0.00 92 1007.0
20260506090122 13 183 6.4 17.7 0.00 0.00 0.00 92 1007.0
20260506085835 13 159 6.4 17.7 0.00 0.00 0.00 92 1007.0
20260506085636 13 180 6.4 17.7 0.00 0.00 0.00 92 1007.1
20260506085435 13 180 6.4 17.7 0.00 0.00 0.00 92 1007.1
20260506085236 13 151 6.4 17.7 0.00 0.00 0.00 92 1007.1
20260506085036 13 192 4.8 11.3 0.00 0.00 0.00 92 1007.1
20260506084835 13 174 4.8 11.3 0.00 0.00 0.00 92 1007.1
20260506084635 13 106 4.8 11.3 0.00 0.00 0.00 92 1007.1
20260506084435 13 173 4.8 14.5 0.00 0.00 0.00 92 1007.1
20260506084235 13 174 4.8 14.5 0.00 0.00 0.00 92 1007.1
20260506084119 13 140 4.8 14.5 0.00 0.00 0.00 92 1007.1
20260506083832 13 160 4.8 14.5 0.00 0.00 0.00 92 1007.2
20260506083632 13 174 4.8 14.5 0.00 0.00 0.00 92 1007.2
20260506083430 13 176 4.8 9.7 0.00 0.00 0.00 92 1007.2
20260506083230 13 148 4.8 11.3 0.00 0.00 0.00 92 1007.2
20260506083030 13 130 6.4 11.3 0.00 0.00 0.00 92 1007.2
20260506082829 13 182 6.4 11.3 0.00 0.00 0.00 92 1007.2
20260506082630 13 178 6.4 11.3 0.00 0.00 0.00 92 1007.3
20260506082430 13 175 6.4 11.3 0.00 0.00 0.00 92 1007.3
20260506082229 13 173 6.4 11.3 0.00 0.00 0.00 92 1007.2
20260506082030 13 157 6.4 9.7 0.00 0.00 0.00 92 1007.3
20260506081830 13 165 6.4 11.3 0.00 0.00 0.00 92 1007.2
20260506081630 13 185 6.4 11.3 0.00 0.00 0.00 92 1007.2
20260506081429 13 145 6.4 11.3 0.00 0.00 0.00 92 1007.2
20260506081231 13 191 4.8 11.3 0.00 0.00 0.00 92 1007.3
20260506081030 13 181 4.8 11.3 0.00 0.00 0.00 92 1007.3
20260506080830 13 174 4.8 11.3 0.00 0.00 0.00 92 1007.3
20260506080629 13 174 4.8 11.3 0.00 0.00 0.00 92 1007.3
20260506080430 13 180 4.8 11.3 0.00 0.00 0.00 92 1007.2
20260506080230 13 149 4.8 11.3 0.00 0.00 0.00 91 1007.2
20260506073431 13 148 6.4 14.5 0.00 0.00 0.00 91 1007.5
20260506073231 13 190 4.8 14.5 0.00 0.00 0.00 91 1007.5
20260506073031 13 166 6.4 17.7 0.00 0.00 0.00 91 1007.5
20260506072830 13 194 6.4 17.7 0.00 0.00 0.00 91 1007.5
20260506072628 13 36 8.0 17.7 0.00 0.00 0.00 91 1007.6
20260506072428 13 166 8.0 17.7 0.00 0.00 0.00 90 1007.6
20260506072224 13 168 8.0 17.7 0.00 0.00 0.00 90 1007.6
20260506072025 13 169 8.0 17.7 0.00 0.00 0.00 91 1007.5
20260506071825 13 177 8.0 16.1 0.00 0.00 0.00 91 1007.6
20260506071625 13 165 6.4 16.1 0.00 0.00 0.00 90 1007.6
20260506071424 13 196 6.4 16.1 0.00 0.00 0.00 91 1007.6
20260506071225 13 177 6.4 16.1 0.00 0.00 0.00 90 1007.6
20260506071025 13 185 6.4 16.1 0.00 0.00 0.00 90 1007.6
20260506070826 13 178 6.4 16.1 0.00 0.00 0.00 90 1007.5
20260506070626 13 212 6.4 16.1 0.00 0.00 0.00 90 1007.6
20260506070427 13 174 6.4 16.1 0.00 0.00 0.00 90 1007.6
20260506070227 13 164 8.0 17.7 0.00 0.00 0.00 90 1007.6
20260506062424 13 185 8.0 14.5 0.00 0.00 0.00 89 1007.4
20260506062224 13 194 8.0 14.5 0.00 0.00 0.00 89 1007.4
20260506062024 13 187 8.0 14.5 0.00 0.00 0.00 89 1007.4
20260506061824 13 188 8.0 14.5 0.00 0.00 0.00 89 1007.5
20260506061624 13 185 8.0 19.3 0.00 0.00 0.00 89 1007.5
20260506061424 13 181 8.0 19.3 0.00 0.00 0.00 89 1007.5
20260506061224 13 180 8.0 19.3 0.00 0.00 0.00 89 1007.5
20260506061021 13 184 8.0 19.3 0.00 0.00 0.00 88 1007.5
20260506060818 13 181 9.7 20.9 0.00 0.00 0.00 88 1007.4
20260506060619 13 176 8.0 20.9 0.00 0.00 0.00 88 1007.5
20260506060418 13 189 9.7 20.9 0.00 0.00 0.00 88 1007.4
20260506060218 13 172 9.7 20.9 0.00 0.00 0.00 88 1007.4
20260506060113 13 182 8.0 20.9 0.00 0.00 0.00 88 1007.4
20260506051411 14 157 6.4 14.5 0.00 0.00 0.00 85 1007.9
20260506051211 14 182 6.4 14.5 0.00 0.00 0.00 85 1007.8
20260506051011 14 186 8.0 14.5 0.00 0.00 0.00 85 1007.8
20260506050810 14 183 8.0 14.5 0.00 0.00 0.00 85 1007.8
20260506050611 14 179 8.0 16.1 0.00 0.00 0.00 85 1007.8
20260506050410 14 176 8.0 16.1 0.00 0.00 0.00 85 1007.8
20260506050210 14 193 8.0 16.1 0.00 0.00 0.00 85 1007.8
20260506045013 14 168 8.0 14.5 0.00 0.00 0.00 85 1007.8
20260506044811 14 128 8.0 16.1 0.00 0.00 0.00 84 1007.8
20260506044611 14 185 8.0 16.1 0.00 0.00 0.00 84 1007.8
20260506044411 14 180 8.0 16.1 0.00 0.00 0.00 84 1007.9
20260506044211 14 181 8.0 16.1 0.00 0.00 0.00 84 1007.9
20260506044012 14 181 8.0 16.1 0.00 0.00 0.00 84 1007.9
20260506043809 14 157 8.0 16.1 0.00 0.00 0.00 84 1007.9
20260506043608 14 163 8.0 16.1 0.00 0.00 0.00 84 1007.9
20260506043405 14 170 8.0 16.1 0.00 0.00 0.00 84 1007.8
20260506043205 14 207 6.4 17.7 0.00 0.00 0.00 84 1007.9
20260506043109 14 171 6.4 17.7 0.00 0.00 0.00 84 1007.8
20260506042806 14 176 8.0 17.7 0.00 0.00 0.00 84 1007.8
20260506042605 15 185 8.0 17.7 0.00 0.00 0.00 84 1007.8
20260506042405 15 180 8.0 17.7 0.00 0.00 0.00 84 1007.8
20260506042205 15 176 8.0 17.7 0.00 0.00 0.00 83 1007.8
20260506041805 15 198 8.0 17.7 0.00 0.00 0.00 83 1007.8
20260506041605 15 158 8.0 17.7 0.00 0.00 0.00 83 1007.8
20260506041405 15 195 8.0 17.7 0.00 0.00 0.00 83 1007.8
20260506041206 15 160 8.0 17.7 0.00 0.00 0.00 83 1007.9
20260506040805 15 177 9.7 16.1 0.00 0.00 0.00 82 1008.0
20260506040606 15 183 9.7 16.1 0.00 0.00 0.00 82 1008.0
20260506040406 15 171 8.0 16.1 0.00 0.00 0.00 82 1008.0
20260506040206 15 185 8.0 16.1 0.00 0.00 0.00 82 1008.0
20260506035806 15 153 9.7 19.3 0.00 0.00 0.00 82 1008.1
20260506035605 15 176 9.7 19.3 0.00 0.00 0.00 82 1008.0
20260506035405 15 190 9.7 19.3 0.00 0.00 0.00 82 1008.0
20260506035206 15 182 9.7 19.3 0.00 0.00 0.00 81 1008.0
20260506034805 15 208 8.0 16.1 0.00 0.00 0.00 81 1008.0
20260506034612 15 190 8.0 16.1 0.00 0.00 0.00 81 1007.9
20260506034406 15 163 8.0 16.1 0.00 0.00 0.00 81 1007.9
20260506034206 15 188 6.4 17.7 0.00 0.00 0.00 81 1007.9
20260506033806 15 180 8.0 17.7 0.00 0.00 0.00 81 1007.9
20260506033606 15 145 8.0 17.7 0.00 0.00 0.00 80 1007.8
20260506033406 16 177 8.0 17.7 0.00 0.00 0.00 80 1007.8
20260506033206 16 194 8.0 17.7 0.00 0.00 0.00 80 1007.8
20260506033008 16 151 8.0 17.7 0.00 0.00 0.00 80 1007.9
20260506032805 16 174 8.0 17.7 0.00 0.00 0.00 80 1007.9
20260506032601 16 146 8.0 17.7 0.00 0.00 0.00 80 1007.8
20260506032401 16 172 6.4 14.5 0.00 0.00 0.00 80 1007.8
20260506032159 16 273 6.4 14.5 0.00 0.00 0.00 79 1007.8
20260506031958 16 183 6.4 16.1 0.00 0.00 0.00 79 1007.8
20260506031759 16 173 8.0 16.1 0.00 0.00 0.00 79 1007.8
20260506031559 16 172 8.0 16.1 0.00 0.00 0.00 79 1007.8
20260506031359 16 187 8.0 16.1 0.00 0.00 0.00 79 1007.8
20260506031159 16 166 8.0 17.7 0.00 0.00 0.00 79 1007.8
20260506030958 16 181 8.0 17.7 0.00 0.00 0.00 79 1007.8
20260506030758 16 159 8.0 17.7 0.00 0.00 0.00 79 1007.8
20260506030559 16 178 9.7 19.3 0.00 0.00 0.00 79 1007.8
20260506030359 16 169 8.0 19.3 0.00 0.00 0.00 79 1007.8
20260506030159 16 178 8.0 19.3 0.00 0.00 0.00 79 1007.8
20260506025958 16 174 8.0 19.3 0.00 0.00 0.00 79 1007.8
20260506025759 16 169 8.0 19.3 0.00 0.00 0.00 79 1007.9
20260506025559 16 192 8.0 16.1 0.00 0.00 0.00 79 1007.8
20260506025359 16 127 8.0 16.1 0.00 0.00 0.00 79 1007.9
20260506025159 16 181 8.0 16.1 0.00 0.00 0.00 79 1007.9
20260506024959 16 163 6.4 16.1 0.00 0.00 0.00 79 1007.9
20260506024759 16 198 6.4 16.1 0.00 0.00 0.00 79 1007.8
20260506024559 16 191 6.4 19.3 0.00 0.00 0.00 79 1007.9
20260506024359 16 258 6.4 19.3 0.00 0.00 0.00 79 1007.9
20260506024159 16 168 8.0 19.3 0.00 0.00 0.00 78 1007.9
20260506023959 16 225 8.0 19.3 0.00 0.00 0.00 78 1007.9
20260506023800 16 181 8.0 19.3 0.00 0.00 0.00 78 1007.9
20260506023600 16 173 8.0 19.3 0.00 0.00 0.00 78 1007.9
20260506023359 16 210 8.0 16.1 0.00 0.00 0.00 77 1007.9
20260506023200 16 163 8.0 14.5 0.00 0.00 0.00 77 1007.9
20260506023000 16 143 6.4 14.5 0.00 0.00 0.00 77 1007.9
20260506022759 16 68 8.0 14.5 0.00 0.00 0.00 77 1007.9
20260506022600 16 140 8.0 14.5 0.00 0.00 0.00 77 1007.9
20260506022359 16 159 8.0 19.3 0.00 0.00 0.00 76 1007.8
20260506022159 16 171 8.0 19.3 0.00 0.00 0.00 76 1007.9
20260506021957 16 218 8.0 19.3 0.00 0.00 0.00 76 1007.8
20260506021753 16 129 6.4 19.3 0.00 0.00 0.00 76 1007.9
20260506021553 16 164 6.4 19.3 0.00 0.00 0.00 76 1007.8
20260506021354 16 192 6.4 16.1 0.00 0.00 0.00 76 1007.8
20260506021150 16 218 6.4 16.1 0.00 0.00 0.00 76 1007.9
20260506020950 16 197 6.4 14.5 0.00 0.00 0.00 76 1008.0
20260506020748 16 185 8.0 14.5 0.00 0.00 0.00 76 1007.9
20260506020548 16 180 6.4 14.5 0.00 0.00 0.00 75 1007.9
20260506020347 16 163 6.4 14.5 0.00 0.00 0.00 75 1007.9
20260506020147 16 183 6.4 14.5 0.00 0.00 0.00 75 1007.9
20260506015948 16 180 6.4 14.5 0.00 0.00 0.00 75 1007.9
20260506015748 16 206 6.4 14.5 0.00 0.00 0.00 75 1007.9
20260506015548 16 169 8.0 14.5 0.00 0.00 0.00 75 1007.9
20260506015347 16 197 8.0 14.5 0.00 0.00 0.00 75 1007.8
20260506015148 16 175 8.0 14.5 0.00 0.00 0.00 75 1007.8
20260506014947 16 163 8.0 16.1 0.00 0.00 0.00 75 1007.8
20260506014748 16 142 8.0 19.3 0.00 0.00 0.00 75 1007.7
20260506014548 16 179 8.0 19.3 0.00 0.00 0.00 75 1007.8
20260506014348 16 175 6.4 19.3 0.00 0.00 0.00 75 1007.7
20260506014148 16 178 6.4 19.3 0.00 0.00 0.00 75 1007.6
20260506013948 16 187 6.4 19.3 0.00 0.00 0.00 75 1007.6
20260506013748 16 172 6.4 14.5 0.00 0.00 0.00 75 1007.6
20260506013548 16 177 8.0 20.9 0.00 0.00 0.00 75 1007.6
20260506013348 16 276 8.0 20.9 0.00 0.00 0.00 74 1007.6
20260506013148 16 178 9.7 20.9 0.00 0.00 0.00 74 1007.5
20260506012948 16 176 9.7 20.9 0.00 0.00 0.00 74 1007.5
20260506012748 16 177 9.7 20.9 0.00 0.00 0.00 74 1007.5
20260506012548 16 268 9.7 19.3 0.00 0.00 0.00 74 1007.5
20260506012348 16 180 9.7 19.3 0.00 0.00 0.00 73 1007.5
20260506012148 16 173 9.7 19.3 0.00 0.00 0.00 73 1007.4
20260506011949 17 174 9.7 20.9 0.00 0.00 0.00 73 1007.4
20260506011748 17 164 9.7 20.9 0.00 0.00 0.00 73 1007.4
20260506011548 17 178 8.0 20.9 0.00 0.00 0.00 72 1007.4
20260506011349 17 163 8.0 20.9 0.00 0.00 0.00 72 1007.3
20260506011149 17 183 8.0 20.9 0.00 0.00 0.00 72 1007.4
20260506010949 17 191 8.0 14.5 0.00 0.00 0.00 72 1007.3
20260506010748 17 159 8.0 14.5 0.00 0.00 0.00 72 1007.3
20260506010548 17 154 8.0 14.5 0.00 0.00 0.00 72 1007.3
20260506010349 17 166 8.0 16.1 0.00 0.00 0.00 72 1007.3
20260506010148 17 167 8.0 16.1 0.00 0.00 0.00 72 1007.3
20260506005948 17 185 8.0 16.1 0.00 0.00 0.00 72 1007.3
20260506005749 17 163 8.0 16.1 0.00 0.00 0.00 72 1007.2
20260506005548 17 180 8.0 16.1 0.00 0.00 0.00 72 1007.1
20260506005346 17 168 8.0 14.5 0.00 0.00 0.00 72 1007.1
20260506005143 17 168 6.4 14.5 0.00 0.00 0.00 72 1007.1
20260506004943 17 182 6.4 16.1 0.00 0.00 0.00 71 1007.1
20260506004743 17 168 8.0 19.3 0.00 0.00 0.00 71 1007.1
20260506004542 17 216 6.4 19.3 0.00 0.00 0.00 70 1007.1
20260506004343 17 168 6.4 19.3 0.00 0.00 0.00 70 1007.1
20260506004143 17 166 6.4 19.3 0.00 0.00 0.00 70 1007.0
20260506003943 17 216 6.4 19.3 0.00 0.00 0.00 69 1006.9
20260506003743 17 168 6.4 14.5 0.00 0.00 0.00 69 1007.0
20260506003543 17 230 6.4 14.5 0.00 0.00 0.00 69 1007.0
20260506003343 17 175 6.4 14.5 0.00 0.00 0.00 69 1006.9
20260506003143 17 250 6.4 14.5 0.00 0.00 0.00 69 1006.9
20260506002943 17 171 6.4 14.5 0.00 0.00 0.00 68 1006.9
20260506002826 18 163 6.4 14.5 0.00 0.00 0.00 68 1006.8
20260506002601 18 201 6.4 14.5 0.00 0.00 0.00 68 1006.8
20260506002343 18 171 6.4 14.5 0.00 0.00 0.00 68 1006.8
20260506002143 18 186 6.4 14.5 0.00 0.00 0.00 68 1006.8
20260506001943 18 151 6.4 14.5 0.00 0.00 0.00 68 1006.8
20260506001743 18 290 6.4 14.5 0.00 0.00 0.00 68 1006.7
20260506001543 18 178 6.4 14.5 0.00 0.00 0.00 68 1006.8
20260506001343 18 169 6.4 14.5 0.00 0.00 0.00 68 1006.8
20260506001143 18 183 6.4 19.3 0.00 0.00 0.00 67 1006.7
20260506000943 18 177 6.4 19.3 0.00 0.00 0.00 68 1006.7
20260506000743 17 181 6.4 19.3 0.00 0.00 0.00 68 1006.7
20260506000543 18 184 6.4 19.3 0.00 0.00 0.00 68 1006.7
20260506000344 18 186 6.4 19.3 0.00 0.00 0.00 67 1006.6
20260506000144 18 176 6.4 12.9 0.00 0.00 0.00 68 1006.6
20260505235943 18 193 6.4 12.9 0.00 0.00 0.00 67 1006.5
20260505235743 18 74 4.8 12.9 0.00 0.00 0.00 67 1006.6
20260505235543 18 158 6.4 12.9 0.00 0.00 0.00 67 1006.5
20260505235344 18 174 6.4 12.9 0.00 0.00 0.00 67 1006.5
20260505235143 18 55 4.8 12.9 0.00 0.00 0.00 67 1006.5
20260505234943 18 279 4.8 14.5 0.00 0.00 0.00 67 1006.6
20260505234744 18 167 6.4 14.5 0.00 0.00 0.00 67 1006.5
20260505234559 18 154 6.4 14.5 0.00 0.00 0.00 67 1006.5
20260505234343 18 243 6.4 14.5 0.00 0.00 0.00 67 1006.4
20260505234141 18 217 6.4 14.5 0.00 0.00 0.00 67 1006.3
20260505233940 18 173 8.0 16.1 0.00 0.00 0.00 67 1006.3
20260505233741 18 149 8.0 16.1 0.00 0.00 0.00 66 1006.2
20260505233542 18 186 8.0 16.1 0.00 0.00 0.00 66 1006.2
20260505233340 18 172 8.0 16.1 0.00 0.00 0.00 66 1006.3
20260505233140 18 183 8.0 16.1 0.00 0.00 0.00 66 1006.2
20260505232941 18 176 6.4 16.1 0.00 0.00 0.00 66 1006.2
20260505232741 18 201 6.4 16.1 0.00 0.00 0.00 66 1006.1
20260505232541 18 172 6.4 16.1 0.00 0.00 0.00 66 1006.0
20260505232341 18 268 6.4 16.1 0.00 0.00 0.00 66 1006.1
20260505232141 18 245 4.8 11.3 0.00 0.00 0.00 66 1006.0
20260505231941 18 182 4.8 11.3 0.00 0.00 0.00 66 1006.0
20260505231741 18 279 4.8 12.9 0.00 0.00 0.00 66 1006.0
20260505231541 18 147 6.4 12.9 0.00 0.00 0.00 66 1006.0
20260505231341 18 215 6.4 12.9 0.00 0.00 0.00 66 1005.9
20260505231141 18 176 6.4 12.9 0.00 0.00 0.00 66 1005.9
20260505230941 18 171 8.0 17.7 0.00 0.00 0.00 66 1005.9
20260505230741 18 198 8.0 17.7 0.00 0.00 0.00 66 1005.9
20260505230541 18 172 8.0 17.7 0.00 0.00 0.00 66 1005.9
20260505230341 18 205 6.4 17.7 0.00 0.00 0.00 66 1005.8
20260505230141 18 168 6.4 17.7 0.00 0.00 0.00 66 1005.8
20260505225941 18 175 6.4 17.7 0.00 0.00 0.00 65 1005.8
20260505225741 18 180 6.4 17.7 0.00 0.00 0.00 65 1005.7
20260505225541 18 217 4.8 12.9 0.00 0.00 0.00 65 1005.7
20260505225341 18 212 6.4 12.9 0.00 0.00 0.00 64 1005.8
20260505225142 18 172 6.4 12.9 0.00 0.00 0.00 64 1005.8
20260505224942 18 169 6.4 14.5 0.00 0.00 0.00 64 1005.8
20260505224741 18 243 6.4 24.1 0.00 0.00 0.00 64 1005.8
20260505224541 18 189 6.4 24.1 0.00 0.00 0.00 64 1005.8
20260505224342 18 209 8.0 24.1 0.00 0.00 0.00 64 1005.9
20260505224142 18 180 9.7 29.0 0.00 0.00 0.00 64 1005.9
20260505223941 19 179 9.7 29.0 0.00 0.00 0.00 63 1005.9
20260505223742 19 179 9.7 29.0 0.00 0.00 0.00 63 1005.8
20260505223542 19 182 9.7 29.0 0.00 0.00 0.00 62 1005.7
20260505223342 19 172 9.7 29.0 0.00 0.00 0.00 61 1005.7
20260505223142 19 185 9.7 27.4 0.00 0.00 0.00 61 1005.6
20260505222942 19 158 9.7 20.9 0.00 0.00 0.00 61 1005.7
20260505222739 20 187 9.7 20.9 0.00 0.00 0.00 61 1005.6
20260505222539 20 172 9.7 20.9 0.00 0.00 0.00 61 1005.5
20260505222339 20 183 9.7 20.9 0.00 0.00 0.00 60 1005.5
20260505222138 20 185 9.7 20.9 0.00 0.00 0.00 60 1005.6
20260505221938 20 193 9.7 19.3 0.00 0.00 0.00 60 1005.6
20260505221739 20 152 9.7 19.3 0.00 0.00 0.00 60 1005.6
20260505221536 20 194 9.7 19.3 0.00 0.00 0.00 60 1005.5
20260505221335 20 174 9.7 20.9 0.00 0.00 0.00 60 1005.5
20260505221135 20 80 9.7 20.9 0.00 0.00 0.00 60 1005.5
20260505220936 20 202 9.7 20.9 0.00 0.00 0.00 60 1005.5
20260505220736 20 187 9.7 20.9 0.00 0.00 0.00 60 1005.6
20260505220536 20 196 9.7 20.9 0.00 0.00 0.00 60 1005.6
20260505220335 20 124 9.7 20.9 0.00 0.00 0.00 60 1005.6
20260505220137 20 298 9.7 19.3 0.00 0.00 0.00 60 1005.6
20260505215936 20 152 9.7 19.3 0.00 0.00 0.00 60 1005.5
20260505215736 20 162 9.7 19.3 0.00 0.00 0.00 59 1005.5
20260505215536 20 190 9.7 19.3 0.00 0.00 0.00 59 1005.5
20260505215336 20 194 9.7 19.3 0.00 0.00 0.00 60 1005.6
20260505215136 20 185 9.7 20.9 0.00 0.00 0.00 60 1005.6
20260505214937 20 151 9.7 20.9 0.00 0.00 0.00 59 1005.7
20260505214736 20 183 9.7 20.9 0.00 0.00 0.00 59 1005.6
20260505214536 20 177 9.7 20.9 0.00 0.00 0.00 60 1005.5
20260505214337 20 182 9.7 20.9 0.00 0.00 0.00 59 1005.5
20260505214136 20 182 8.0 19.3 0.00 0.00 0.00 60 1005.6
20260505213936 20 184 8.0 19.3 0.00 0.00 0.00 60 1005.6
20260505213736 20 173 8.0 17.7 0.00 0.00 0.00 60 1005.6
20260505213537 20 200 6.4 16.1 0.00 0.00 0.00 60 1005.6
20260505213337 20 208 8.0 17.7 0.00 0.00 0.00 60 1005.6
20260505213136 20 205 8.0 17.7 0.00 0.00 0.00 60 1005.6
20260505212936 20 281 8.0 19.3 0.00 0.00 0.00 60 1005.5
20260505212737 20 185 9.7 20.9 0.00 0.00 0.00 60 1005.5
20260505212548 20 281 9.7 20.9 0.00 0.00 0.00 61 1005.4
20260505212336 20 202 9.7 20.9 0.00 0.00 0.00 61 1005.4
20260505212137 20 195 9.7 20.9 0.00 0.00 0.00 61 1005.5
20260505211933 20 191 9.7 20.9 0.00 0.00 0.00 61 1005.3
20260505211734 20 163 9.7 17.7 0.00 0.00 0.00 61 1005.4
20260505211534 20 194 9.7 17.7 0.00 0.00 0.00 61 1005.3
20260505211333 20 194 9.7 17.7 0.00 0.00 0.00 62 1005.3
20260505211134 20 183 8.0 17.7 0.00 0.00 0.00 62 1005.3
20260505210934 20 177 9.7 19.3 0.00 0.00 0.00 62 1005.3
20260505210734 20 191 9.7 19.3 0.00 0.00 0.00 63 1005.3
20260505210534 20 183 9.7 19.3 0.00 0.00 0.00 63 1005.4
20260505210333 20 221 8.0 19.3 0.00 0.00 0.00 63 1005.4
20260505210134 20 192 9.7 19.3 0.00 0.00 0.00 63 1005.4
20260505205934 20 150 8.0 16.1 0.00 0.00 0.00 63 1005.2
20260505205734 20 186 8.0 17.7 0.00 0.00 0.00 62 1005.4
20260505205534 20 212 8.0 17.7 0.00 0.00 0.00 63 1005.4
20260505205334 20 160 8.0 17.7 0.00 0.00 0.00 63 1005.4
20260505205134 20 174 8.0 17.7 0.00 0.00 0.00 63 1005.4
20260505204934 20 176 8.0 17.7 0.00 0.00 0.00 63 1005.4
20260505204734 20 194 6.4 16.1 0.00 0.00 0.00 63 1005.5
20260505204534 20 160 8.0 16.1 0.00 0.00 0.00 63 1005.4
20260505204334 20 195 6.4 16.1 0.00 0.00 0.00 63 1005.5
20260505204134 20 183 6.4 16.1 0.00 0.00 0.00 63 1005.5
20260505203934 20 187 6.4 16.1 0.00 0.00 0.00 62 1005.4
20260505203734 20 188 6.4 16.1 0.00 0.00 0.00 62 1005.4
20260505203535 20 219 8.0 16.1 0.00 0.00 0.00 63 1005.5
20260505203334 20 174 8.0 16.1 0.00 0.00 0.00 63 1005.4
20260505203135 20 182 8.0 19.3 0.00 0.00 0.00 63 1005.4
20260505202935 20 180 9.7 19.3 0.00 0.00 0.00 63 1005.4
20260505202735 20 186 9.7 19.3 0.00 0.00 0.00 63 1005.5
20260505202544 20 194 9.7 19.3 0.00 0.00 0.00 63 1005.5
20260505202134 20 181 9.7 19.3 0.00 0.00 0.00 63 1005.6
20260505201934 20 277 9.7 19.3 0.00 0.00 0.00 62 1005.6
20260505201732 20 152 9.7 19.3 0.00 0.00 0.00 62 1005.6
20260505201532 20 149 8.0 17.7 0.00 0.00 0.00 62 1005.6
20260505201329 20 166 8.0 16.1 0.00 0.00 0.00 62 1005.6
20260505201129 20 193 8.0 16.1 0.00 0.00 0.00 62 1005.6
20260505200928 21 178 6.4 16.1 0.00 0.00 0.00 60 1005.7
20260505200726 21 171 6.4 14.5 0.00 0.00 0.00 60 1005.6
20260505200526 21 317 6.4 16.1 0.00 0.00 0.00 61 1005.6
20260505200327 21 194 6.4 16.1 0.00 0.00 0.00 60 1005.6
20260505200123 21 138 6.4 16.1 0.00 0.00 0.00 60 1005.7
20260505195923 21 80 6.4 16.1 0.00 0.00 0.00 62 1005.7
20260505195722 21 184 6.4 16.1 0.00 0.00 0.00 61 1005.8
20260505195523 21 155 6.4 17.7 0.00 0.00 0.00 60 1005.7
20260505195323 21 194 6.4 17.7 0.00 0.00 0.00 60 1005.7
20260505195123 21 158 6.4 17.7 0.00 0.00 0.00 60 1005.7
20260505194923 21 164 6.4 17.7 0.00 0.00 0.00 60 1005.8
20260505194723 21 189 6.4 17.7 0.00 0.00 0.00 59 1005.8
20260505194523 21 281 6.4 14.5 0.00 0.00 0.00 61 1006.0
20260505194323 21 250 6.4 14.5 0.00 0.00 0.00 60 1005.9
20260505194122 21 299 6.4 14.5 0.00 0.00 0.00 61 1006.0
20260505193922 21 156 6.4 14.5 0.00 0.00 0.00 59 1005.9
20260505193723 21 277 6.4 11.3 0.00 0.00 0.00 61 1006.0
20260505193523 21 74 6.4 14.5 0.00 0.00 0.00 61 1005.9
20260505193323 21 214 6.4 14.5 0.00 0.00 0.00 61 1006.0
20260505193121 21 334 6.4 14.5 0.00 0.00 0.00 61 1006.1
20260505192921 20 106 6.4 14.5 0.00 0.00 0.00 62 1006.1
20260505192722 20 181 6.4 14.5 0.00 0.00 0.00 62 1006.2
20260505192522 20 324 6.4 14.5 0.00 0.00 0.00 62 1006.2
20260505192322 20 210 6.4 14.5 0.00 0.00 0.00 62 1006.2
20260505192122 20 160 6.4 14.5 0.00 0.00 0.00 63 1006.3
20260505191921 20 158 6.4 14.5 0.00 0.00 0.00 63 1006.3
20260505191721 20 182 6.4 14.5 0.00 0.00 0.00 62 1006.3
20260505191521 20 159 6.4 12.9 0.00 0.00 0.00 62 1006.5
20260505191322 20 182 6.4 12.9 0.00 0.00 0.00 63 1006.5
20260505191122 20 188 6.4 12.9 0.00 0.00 0.00 63 1006.4
20260505190921 20 178 6.4 14.5 0.00 0.00 0.00 63 1006.4
20260505190722 20 174 6.4 17.7 0.00 0.00 0.00 63 1006.6
20260505190520 20 293 8.0 17.7 0.00 0.00 0.00 63 1006.5
20260505190321 20 187 8.0 17.7 0.00 0.00 0.00 64 1006.6
20260505190121 20 179 8.0 17.7 0.00 0.00 0.00 63 1006.5
20260505185920 20 170 8.0 24.1 0.00 0.00 0.00 63 1006.6
20260505185721 20 279 8.0 24.1 0.00 0.00 0.00 63 1006.8
20260505185521 20 184 8.0 24.1 0.00 0.00 0.00 63 1006.7
20260505185318 20 181 9.7 24.1 0.00 0.00 0.00 63 1006.7
20260505185115 20 196 9.7 24.1 0.00 0.00 0.00 63 1006.7
20260505184915 20 175 8.0 17.7 0.00 0.00 0.00 63 1006.7
20260505184715 20 170 8.0 17.7 0.00 0.00 0.00 63 1006.9
20260505184515 21 188 8.0 17.7 0.00 0.00 0.00 63 1006.9
20260505184314 21 251 6.4 17.7 0.00 0.00 0.00 62 1006.8
20260505184115 21 304 6.4 16.1 0.00 0.00 0.00 61 1006.9
20260505183915 21 182 6.4 16.1 0.00 0.00 0.00 61 1007.0
20260505183715 21 202 6.4 16.1 0.00 0.00 0.00 63 1007.0
20260505183514 21 114 6.4 16.1 0.00 0.00 0.00 62 1007.0
20260505183315 21 186 6.4 16.1 0.00 0.00 0.00 62 1007.0
20260505183115 21 165 6.4 14.5 0.00 0.00 0.00 63 1007.1
20260505182915 21 315 6.4 14.5 0.00 0.00 0.00 64 1007.0
20260505182715 21 265 6.4 11.3 0.00 0.00 0.00 63 1007.0
20260505182315 21 135 6.4 12.9 0.00 0.00 0.00 62 1007.0
20260505182115 21 285 6.4 12.9 0.00 0.00 0.00 62 1007.0
20260505181915 21 276 6.4 12.9 0.00 0.00 0.00 63 1007.1
20260505181715 21 142 4.8 12.9 0.00 0.00 0.00 64 1007.0
20260505181515 21 124 4.8 12.9 0.00 0.00 0.00 63 1007.0
20260505181315 21 140 4.8 11.3 0.00 0.00 0.00 63 1007.1
20260505181115 21 317 4.8 11.3 0.00 0.00 0.00 64 1007.1
20260505180915 21 166 4.8 12.9 0.00 0.00 0.00 63 1007.1
20260505180716 21 276 6.4 12.9 0.00 0.00 0.00 63 1007.1
20260505180516 21 130 6.4 12.9 0.00 0.00 0.00 63 1007.1
20260505180315 20 274 4.8 12.9 0.00 0.00 0.00 64 1007.1
20260505180115 20 100 4.8 12.9 0.00 0.00 0.00 64 1007.1
20260505175915 20 191 4.8 12.9 0.00 0.00 0.00 64 1007.1
20260505175715 20 186 4.8 12.9 0.00 0.00 0.00 64 1007.2
20260505175516 20 320 4.8 11.3 0.00 0.00 0.00 64 1007.2
20260505175316 20 124 4.8 11.3 0.00 0.00 0.00 64 1007.2
20260505175115 20 104 4.8 11.3 0.00 0.00 0.00 64 1007.3
20260505174912 20 155 4.8 9.7 0.00 0.00 0.00 64 1007.3
20260505174713 20 302 4.8 9.7 0.00 0.00 0.00 64 1007.3
20260505174510 20 114 4.8 12.9 0.00 0.00 0.00 65 1007.3
20260505174307 20 117 6.4 12.9 0.00 0.00 0.00 65 1007.3
20260505174109 20 91 4.8 12.9 0.00 0.00 0.00 65 1007.3
20260505173905 20 204 4.8 12.9 0.00 0.00 0.00 65 1007.3
20260505173705 20 167 6.4 12.9 0.00 0.00 0.00 64 1007.3
20260505173534 20 169 4.8 12.9 0.00 0.00 0.00 64 1007.3
20260505173305 20 196 4.8 12.9 0.00 0.00 0.00 65 1007.4
20260505173104 20 182 6.4 12.9 0.00 0.00 0.00 64 1007.4
20260505172905 20 184 6.4 12.9 0.00 0.00 0.00 64 1007.4
20260505172705 20 37 6.4 12.9 0.00 0.00 0.00 65 1007.3
20260505172505 20 119 6.4 12.9 0.00 0.00 0.00 66 1007.4
20260505172306 20 198 8.0 12.9 0.00 0.00 0.00 66 1007.4
20260505172106 20 187 6.4 12.9 0.00 0.00 0.00 65 1007.4
20260505171905 20 196 6.4 12.9 0.00 0.00 0.00 64 1007.4
20260505171706 20 167 6.4 12.9 0.00 0.00 0.00 64 1007.4
20260505171506 20 287 8.0 14.5 0.00 0.00 0.00 64 1007.4
20260505171305 20 174 8.0 14.5 0.00 0.00 0.00 65 1007.4
20260505171106 21 182 8.0 14.5 0.00 0.00 0.00 64 1007.4
20260505170906 21 182 6.4 14.5 0.00 0.00 0.00 63 1007.4
20260505170705 21 182 6.4 14.5 0.00 0.00 0.00 63 1007.5
20260505170505 21 179 4.8 14.5 0.00 0.00 0.00 62 1007.5
20260505170306 21 196 4.8 12.9 0.00 0.00 0.00 62 1007.5
20260505170106 21 124 4.8 12.9 0.00 0.00 0.00 61 1007.5
20260505165906 21 181 4.8 12.9 0.00 0.00 0.00 62 1007.5
20260505165705 21 272 4.8 12.9 0.00 0.00 0.00 62 1007.5
20260505165505 21 177 4.8 12.9 0.00 0.00 0.00 62 1007.5
20260505165306 21 299 4.8 12.9 0.00 0.00 0.00 61 1007.5
20260505165106 21 66 6.4 14.5 0.00 0.00 0.00 61 1007.5
20260505164906 21 179 6.4 14.5 0.00 0.00 0.00 61 1007.5
20260505164705 21 253 6.4 14.5 0.00 0.00 0.00 61 1007.6
20260505164506 21 211 6.4 14.5 0.00 0.00 0.00 62 1007.5
20260505164305 21 178 6.4 14.5 0.00 0.00 0.00 61 1007.6
20260505164106 21 187 4.8 11.3 0.00 0.00 0.00 61 1007.6
20260505163905 21 167 4.8 9.7 0.00 0.00 0.00 61 1007.6
20260505163704 21 261 4.8 9.7 0.00 0.00 0.00 60 1007.7
20260505163504 21 303 4.8 9.7 0.00 0.00 0.00 61 1007.7
20260505163305 21 125 6.4 12.9 0.00 0.00 0.00 61 1007.7
20260505163105 21 267 4.8 12.9 0.00 0.00 0.00 61 1007.8
20260505162905 21 102 4.8 12.9 0.00 0.00 0.00 61 1007.8
20260505162702 21 103 6.4 12.9 0.00 0.00 0.00 59 1007.8
20260505162502 21 12 4.8 14.5 0.00 0.00 0.00 60 1007.9
20260505162301 21 130 6.4 14.5 0.00 0.00 0.00 61 1007.9
20260505162101 21 171 6.4 14.5 0.00 0.00 0.00 61 1007.9
20260505161901 21 184 6.4 14.5 0.00 0.00 0.00 61 1007.9
20260505161702 21 167 6.4 14.5 0.00 0.00 0.00 62 1007.9
20260505161502 21 183 6.4 14.5 0.00 0.00 0.00 61 1007.9
20260505161302 21 174 6.4 12.9 0.00 0.00 0.00 61 1007.9
20260505161102 21 180 6.4 12.9 0.00 0.00 0.00 61 1008.0
20260505160902 21 171 6.4 12.9 0.00 0.00 0.00 62 1007.9
20260505160702 21 150 6.4 12.9 0.00 0.00 0.00 59 1007.9
20260505160502 21 189 6.4 12.9 0.00 0.00 0.00 60 1007.9
20260505160303 21 108 6.4 12.9 0.00 0.00 0.00 62 1007.9
20260505153303 21 154 4.8 9.7 0.00 0.00 0.00 62 1008.0
20260505153103 21 212 4.8 9.7 0.00 0.00 0.00 61 1008.1
20260505152902 21 189 4.8 9.7 0.00 0.00 0.00 62 1008.1
20260505152703 21 324 4.8 9.7 0.00 0.00 0.00 61 1008.2
20260505152503 21 200 4.8 11.3 0.00 0.00 0.00 62 1008.3
20260505152305 20 178 4.8 11.3 0.00 0.00 0.00 62 1008.3
20260505152102 20 204 4.8 12.9 0.00 0.00 0.00 63 1008.3
20260505151902 20 78 4.8 12.9 0.00 0.00 0.00 62 1008.3
20260505151700 20 289 4.8 12.9 0.00 0.00 0.00 63 1008.4
20260505151459 20 294 4.8 12.9 0.00 0.00 0.00 63 1008.4
20260505151300 20 135 4.8 12.9 0.00 0.00 0.00 63 1008.4
20260505151100 20 197 4.8 9.7 0.00 0.00 0.00 63 1008.4
20260505150900 21 173 4.8 9.7 0.00 0.00 0.00 63 1008.4
20260505150700 21 137 4.8 9.7 0.00 0.00 0.00 63 1008.5
20260505150500 21 289 4.8 9.7 0.00 0.00 0.00 62 1008.5
20260505150300 21 181 4.8 9.7 0.00 0.00 0.00 62 1008.5